| time (UTC) | temp F | wind direction | speed MPH | gust MPH | rain 1hr in | rain 24hr in | rain mn in | humidity % | barometer mb |
| 20260507090617 | 51 | 167 | 6.0 | 11.0 | 0.00 | 0.08 | 0.00 | 37 | 1016.4 |
| 20260507085619 | 51 | 178 | 7.0 | 11.0 | 0.00 | 0.08 | 0.00 | 37 | 1016.3 |
| 20260507084613 | 51 | 153 | 6.0 | 16.0 | 0.00 | 0.08 | 0.00 | 37 | 1016.3 |
| 20260507083622 | 51 | 125 | 6.0 | 9.0 | 0.00 | 0.08 | 0.00 | 38 | 1016.4 |
| 20260507082630 | 50 | 147 | 5.0 | 9.0 | 0.00 | 0.08 | 0.00 | 39 | 1016.6 |
| 20260507081618 | 48 | 149 | 4.0 | 9.0 | 0.00 | 0.08 | 0.00 | 42 | 1016.7 |
| 20260507080629 | 47 | 133 | 3.0 | 5.0 | 0.00 | 0.08 | 0.00 | 46 | 1016.8 |
| 20260507075624 | 49 | 133 | 2.0 | 7.0 | 0.00 | 0.08 | 0.00 | 44 | 1016.9 |
| 20260507074613 | 51 | 186 | 3.0 | 7.0 | 0.00 | 0.08 | 0.00 | 38 | 1016.9 |
| 20260507073621 | 51 | 119 | 4.0 | 14.0 | 0.00 | 0.08 | 0.00 | 37 | 1017.0 |
| 20260507072612 | 52 | 159 | 5.0 | 13.0 | 0.00 | 0.08 | 0.00 | 37 | 1017.1 |
| 20260507071623 | 51 | 140 | 6.0 | 10.0 | 0.00 | 0.08 | 0.00 | 38 | 1017.1 |
| 20260507070631 | 50 | 154 | 6.0 | 11.0 | 0.00 | 0.08 | 0.00 | 40 | 1017.2 |
| 20260507065612 | 50 | 110 | 5.0 | 15.0 | 0.00 | 0.08 | 0.00 | 41 | 1017.2 |
| 20260507064623 | 50 | 128 | 8.0 | 11.0 | 0.00 | 0.08 | 0.00 | 41 | 1017.1 |
| 20260507063630 | 50 | 106 | 10.0 | 13.0 | 0.00 | 0.08 | 0.00 | 41 | 1017.1 |
| 20260507062617 | 49 | 138 | 7.0 | 10.0 | 0.00 | 0.08 | 0.00 | 43 | 1017.3 |
| 20260507061645 | 50 | 128 | 7.0 | 12.0 | 0.00 | 0.08 | 0.00 | 42 | 1017.3 |
| 20260507060623 | 50 | 130 | 8.0 | 13.0 | 0.00 | 0.08 | 0.00 | 42 | 1017.3 |
| 20260507055626 | 50 | 121 | 5.0 | 11.0 | 0.00 | 0.08 | 0.08 | 42 | 1017.3 |
| 20260507054613 | 50 | 155 | 7.0 | 11.0 | 0.00 | 0.08 | 0.08 | 40 | 1017.4 |
| 20260507053620 | 50 | 127 | 7.0 | 12.0 | 0.00 | 0.08 | 0.08 | 40 | 1017.5 |
| 20260507052613 | 50 | 128 | 6.0 | 10.0 | 0.00 | 0.08 | 0.08 | 41 | 1017.6 |
| 20260507051622 | 50 | 160 | 5.0 | 11.0 | 0.00 | 0.08 | 0.08 | 42 | 1017.7 |
| 20260507050629 | 50 | 155 | 6.0 | 10.0 | 0.00 | 0.08 | 0.08 | 44 | 1017.7 |
| 20260507045629 | 50 | 142 | 4.0 | 7.0 | 0.00 | 0.08 | 0.08 | 44 | 1017.7 |
| 20260507044619 | 50 | 153 | 6.0 | 10.0 | 0.00 | 0.08 | 0.08 | 44 | 1017.7 |
| 20260507043627 | 51 | 159 | 5.0 | 11.0 | 0.00 | 0.08 | 0.08 | 43 | 1017.7 |
| 20260507042616 | 51 | 119 | 5.0 | 10.0 | 0.00 | 0.08 | 0.08 | 43 | 1017.6 |
| 20260507041625 | 51 | 114 | 8.0 | 10.0 | 0.00 | 0.08 | 0.08 | 43 | 1017.5 |
| 20260507040624 | 51 | 114 | 6.0 | 11.0 | 0.00 | 0.08 | 0.08 | 43 | 1017.4 |
| 20260507035625 | 51 | 136 | 5.0 | 10.0 | 0.00 | 0.08 | 0.08 | 43 | 1017.6 |
| 20260507034613 | 51 | 146 | 5.0 | 9.0 | 0.00 | 0.08 | 0.08 | 43 | 1017.5 |
| 20260507033621 | 51 | 134 | 3.0 | 10.0 | 0.00 | 0.08 | 0.08 | 43 | 1017.4 |
| 20260507032635 | 52 | 121 | 6.0 | 12.0 | 0.00 | 0.08 | 0.08 | 43 | 1017.3 |
| 20260507031625 | 52 | 149 | 5.0 | 12.0 | 0.00 | 0.08 | 0.08 | 43 | 1017.1 |
| 20260507030615 | 52 | 141 | 4.0 | 10.0 | 0.00 | 0.08 | 0.08 | 44 | 1017.1 |
| 20260507025614 | 52 | 146 | 4.0 | 11.0 | 0.00 | 0.08 | 0.08 | 43 | 1017.1 |
| 20260507024626 | 53 | 134 | 5.0 | 9.0 | 0.00 | 0.08 | 0.08 | 42 | 1017.1 |
| 20260507023615 | 53 | 178 | 3.0 | 7.0 | 0.00 | 0.08 | 0.08 | 42 | 1016.9 |
| 20260507022626 | 54 | 83 | 1.0 | 4.0 | 0.00 | 0.08 | 0.08 | 41 | 1016.9 |
| 20260507021617 | 55 | 36 | 3.0 | 5.0 | 0.00 | 0.08 | 0.08 | 40 | 1016.7 |
| 20260507020650 | 56 | 291 | 1.0 | 6.0 | 0.00 | 0.08 | 0.08 | 39 | 1016.4 |
| 20260507015629 | 58 | 273 | 1.0 | 4.0 | 0.00 | 0.08 | 0.08 | 37 | 1016.5 |
| 20260507014617 | 58 | 286 | 2.0 | 4.0 | 0.00 | 0.08 | 0.08 | 38 | 1016.4 |
| 20260507013624 | 59 | 290 | 3.0 | 8.0 | 0.00 | 0.08 | 0.08 | 37 | 1016.5 |
| 20260507012616 | 59 | 261 | 4.0 | 7.0 | 0.00 | 0.08 | 0.08 | 35 | 1016.4 |
| 20260507011621 | 59 | 289 | 3.0 | 9.0 | 0.00 | 0.08 | 0.08 | 36 | 1016.3 |
| 20260507010628 | 59 | 263 | 6.0 | 10.0 | 0.00 | 0.08 | 0.08 | 36 | 1016.3 |
| 20260507005651 | 59 | 278 | 7.0 | 10.0 | 0.00 | 0.08 | 0.08 | 33 | 1016.3 |
| 20260507004622 | 59 | 274 | 7.0 | 11.0 | 0.00 | 0.08 | 0.08 | 38 | 1016.5 |
| 20260507003630 | 60 | 285 | 9.0 | 14.0 | 0.00 | 0.08 | 0.08 | 34 | 1016.5 |
| 20260507002617 | 60 | 253 | 9.0 | 12.0 | 0.00 | 0.08 | 0.08 | 34 | 1016.5 |
| 20260507001626 | 60 | 282 | 7.0 | 13.0 | 0.00 | 0.08 | 0.08 | 33 | 1016.4 |
| 20260507000617 | 60 | 290 | 7.0 | 12.0 | 0.00 | 0.08 | 0.08 | 33 | 1016.5 |
| 20260506235616 | 60 | 289 | 5.0 | 12.0 | 0.00 | 0.08 | 0.08 | 36 | 1016.3 |
| 20260506234623 | 59 | 288 | 5.0 | 8.0 | 0.00 | 0.08 | 0.08 | 33 | 1016.5 |
| 20260506233632 | 59 | 279 | 5.0 | 9.0 | 0.00 | 0.08 | 0.08 | 34 | 1016.4 |
| 20260506232626 | 59 | 302 | 6.0 | 9.0 | 0.00 | 0.08 | 0.08 | 36 | 1016.5 |
| 20260506231614 | 59 | 285 | 6.0 | 10.0 | 0.00 | 0.08 | 0.08 | 36 | 1016.5 |
| 20260506230645 | 59 | 327 | 5.0 | 10.0 | 0.00 | 0.08 | 0.08 | 36 | 1016.5 |
| 20260506225623 | 59 | 288 | 5.0 | 9.0 | 0.00 | 0.08 | 0.08 | 37 | 1016.7 |
| 20260506224616 | 58 | 296 | 3.0 | 8.0 | 0.00 | 0.08 | 0.08 | 37 | 1016.8 |
| 20260506223625 | 57 | 247 | 3.0 | 10.0 | 0.00 | 0.08 | 0.08 | 36 | 1016.8 |
| 20260506222614 | 58 | 267 | 1.0 | 8.0 | 0.00 | 0.08 | 0.08 | 33 | 1017.0 |
| 20260506221621 | 57 | 337 | 1.0 | 5.0 | 0.00 | 0.08 | 0.08 | 33 | 1016.9 |
| 20260506220614 | 57 | 305 | 5.0 | 10.0 | 0.00 | 0.08 | 0.08 | 37 | 1017.1 |
| 20260506215613 | 56 | 315 | 4.0 | 9.0 | 0.00 | 0.08 | 0.08 | 35 | 1017.2 |
| 20260506214622 | 56 | 302 | 3.0 | 8.0 | 0.00 | 0.08 | 0.08 | 35 | 1017.4 |
| 20260506213631 | 54 | 265 | 2.0 | 8.0 | 0.00 | 0.08 | 0.08 | 40 | 1017.4 |
| 20260506212623 | 55 | 206 | 1.0 | 5.0 | 0.00 | 0.08 | 0.08 | 35 | 1017.3 |
| 20260506211614 | 55 | 305 | 3.0 | 6.0 | 0.00 | 0.08 | 0.08 | 42 | 1017.4 |
| 20260506210625 | 54 | 304 | 5.0 | 8.0 | 0.00 | 0.08 | 0.08 | 42 | 1017.5 |
| 20260506205624 | 54 | 290 | 2.0 | 5.0 | 0.00 | 0.08 | 0.08 | 41 | 1017.5 |
| 20260506204617 | 53 | 309 | 2.0 | 8.0 | 0.00 | 0.08 | 0.08 | 42 | 1017.7 |
| 20260506203628 | 52 | 303 | 2.0 | 5.0 | 0.00 | 0.08 | 0.08 | 47 | 1017.7 |
| 20260506202618 | 51 | 301 | 3.0 | 7.0 | 0.00 | 0.08 | 0.08 | 45 | 1017.7 |
| 20260506201613 | 51 | 305 | 3.0 | 8.0 | 0.00 | 0.08 | 0.08 | 43 | 1017.8 |
| 20260506200630 | 50 | 306 | 3.0 | 9.0 | 0.00 | 0.08 | 0.08 | 44 | 1017.9 |
| 20260506195629 | 50 | 331 | 3.0 | 9.0 | 0.00 | 0.08 | 0.08 | 43 | 1018.0 |
| 20260506194618 | 49 | 295 | 3.0 | 5.0 | 0.00 | 0.08 | 0.08 | 39 | 1018.2 |
| 20260506193628 | 49 | 289 | 4.0 | 9.0 | 0.00 | 0.08 | 0.08 | 42 | 1018.1 |
| 20260506192622 | 49 | 299 | 6.0 | 12.0 | 0.00 | 0.08 | 0.08 | 43 | 1018.1 |
| 20260506191650 | 48 | 279 | 7.0 | 10.0 | 0.00 | 0.08 | 0.08 | 45 | 1018.2 |
| 20260506190617 | 48 | 277 | 6.0 | 10.0 | 0.00 | 0.08 | 0.08 | 44 | 1018.3 |
| 20260506185618 | 48 | 306 | 5.0 | 9.0 | 0.00 | 0.08 | 0.08 | 41 | 1018.3 |
| 20260506184651 | 48 | 284 | 6.0 | 11.0 | 0.00 | 0.08 | 0.08 | 43 | 1018.4 |
| 20260506183616 | 47 | 350 | 8.0 | 11.0 | 0.00 | 0.08 | 0.08 | 44 | 1018.5 |
| 20260506182625 | 46 | 294 | 1.0 | 9.0 | 0.00 | 0.08 | 0.08 | 45 | 1018.5 |
| 20260506181634 | 45 | 292 | 1.0 | 8.0 | 0.00 | 0.08 | 0.08 | 52 | 1018.5 |
| 20260506180630 | 44 | 217 | 1.0 | 4.0 | 0.00 | 0.08 | 0.08 | 54 | 1018.6 |
| 20260506175636 | 43 | 175 | 4.0 | 6.0 | 0.00 | 0.08 | 0.08 | 49 | 1018.5 |
| 20260506174622 | 43 | 174 | 6.0 | 10.0 | 0.00 | 0.08 | 0.08 | 54 | 1018.5 |
| 20260506173631 | 42 | 223 | 1.0 | 6.0 | 0.00 | 0.08 | 0.08 | 58 | 1018.6 |
| 20260506172619 | 42 | 181 | 4.0 | 7.0 | 0.01 | 0.08 | 0.08 | 56 | 1018.6 |
| 20260506171646 | 42 | 323 | 3.0 | 6.0 | 0.01 | 0.08 | 0.08 | 65 | 1018.7 |
| 20260506170638 | 41 | 274 | 0.0 | 3.0 | 0.02 | 0.08 | 0.08 | 61 | 1018.7 |
| 20260506165618 | 40 | 171 | 3.0 | 9.0 | 0.02 | 0.10 | 0.08 | 60 | 1018.6 |
| 20260506164624 | 39 | 109 | 0.0 | 7.0 | 0.03 | 0.10 | 0.08 | 62 | 1018.6 |
| 20260506163613 | 39 | 134 | 4.0 | 7.0 | 0.04 | 0.10 | 0.08 | 64 | 1018.5 |
| 20260506162625 | 39 | 139 | 4.0 | 7.0 | 0.04 | 0.09 | 0.07 | 66 | 1018.5 |
| 20260506161634 | 38 | 103 | 4.0 | 8.0 | 0.05 | 0.09 | 0.07 | 67 | 1018.4 |
| 20260506160621 | 37 | 186 | 4.0 | 8.0 | 0.05 | 0.08 | 0.06 | 69 | 1018.3 |
| 20260506155639 | 37 | 74 | 5.0 | 13.0 | 0.06 | 0.26 | 0.06 | 71 | 1018.2 |
| 20260506154629 | 36 | 238 | 0.0 | 4.0 | 0.05 | 0.25 | 0.05 | 73 | 1018.2 |
| 20260506153617 | 36 | 237 | 2.0 | 4.0 | 0.04 | 0.24 | 0.04 | 75 | 1018.0 |
| 20260506152623 | 36 | 195 | 0.0 | 3.0 | 0.03 | 0.23 | 0.03 | 76 | 1018.0 |
| 20260506151630 | 36 | 194 | 0.0 | 3.0 | 0.02 | 0.22 | 0.02 | 76 | 1018.0 |
| 20260506150622 | 36 | 194 | 0.0 | 5.0 | 0.01 | 0.21 | 0.01 | 75 | 1017.9 |
| 20260506145622 | 35 | 193 | 2.0 | 5.0 | 0.00 | 0.27 | 0.00 | 76 | 1018.0 |
| 20260506144650 | 35 | 194 | 3.0 | 5.0 | 0.00 | 0.27 | 0.00 | 76 | 1017.8 |
| 20260506143616 | 35 | 195 | 2.0 | 5.0 | 0.00 | 0.27 | 0.00 | 77 | 1017.7 |
| 20260506142645 | 35 | 195 | 3.0 | 5.0 | 0.00 | 0.27 | 0.00 | 76 | 1017.7 |
| 20260506141616 | 34 | 186 | 1.0 | 5.0 | 0.00 | 0.27 | 0.00 | 79 | 1017.5 |
| 20260506140625 | 34 | 186 | 5.0 | 9.0 | 0.00 | 0.27 | 0.00 | 79 | 1017.4 |
| 20260506135626 | 34 | 173 | 4.0 | 8.0 | 0.00 | 0.37 | 0.00 | 81 | 1017.4 |
| 20260506134618 | 33 | 134 | 3.0 | 6.0 | 0.00 | 0.37 | 0.00 | 82 | 1017.3 |
| 20260506133628 | 32 | 96 | 4.0 | 6.0 | 0.00 | 0.37 | 0.00 | 82 | 1017.2 |
| 20260506132635 | 32 | 130 | 2.0 | 6.0 | 0.00 | 0.37 | 0.00 | 81 | 1017.1 |
| 20260506131623 | 32 | 146 | 3.0 | 5.0 | 0.00 | 0.37 | 0.00 | 81 | 1017.0 |
| 20260506130619 | 32 | 139 | 3.0 | 7.0 | 0.00 | 0.37 | 0.00 | 81 | 1016.8 |
| 20260506125643 | 31 | 136 | 3.0 | 9.0 | 0.00 | 0.40 | 0.00 | 81 | 1016.7 |
| 20260506124612 | 31 | 152 | 2.0 | 6.0 | 0.00 | 0.40 | 0.00 | 83 | 1016.4 |
| 20260506123619 | 32 | 161 | 3.0 | 6.0 | 0.00 | 0.40 | 0.00 | 83 | 1016.3 |
| 20260506122612 | 32 | 167 | 5.0 | 9.0 | 0.00 | 0.40 | 0.00 | 82 | 1016.2 |
| 20260506121621 | 32 | 227 | 3.0 | 4.0 | 0.00 | 0.40 | 0.00 | 82 | 1016.0 |
| 20260506120638 | 32 | 198 | 2.0 | 6.0 | 0.00 | 0.40 | 0.00 | 82 | 1015.7 |